Regional Weather Roundup
Issued by NWS Goodland, KS

Home | Current Version | Previous Version | Graphics & Text | Print | Product List | Glossary On
Versions: 1 2 3 4 5 6 7 8 9 10 11 12 13 14 15 16 17 18 19 20 21 22 23 24 25 26 27 28 29 30 31 32 33 34 35 36 37 38 39 40 41 42 43 44 45 46 47 48 49 50
409
ASUS43 KGLD 240108
RWRGLD

GOODLAND FORECAST AREA HOURLY WEATHER ROUNDUP
NATIONAL WEATHER SERVICE GOODLAND KS
600 PM MST THU FEB 23 2017

...OFFICIAL OBSERVATIONS...

CITY           SKY/WX    TMP DP  RH WIND       PRES   REMARKS
GOODLAND KS    CLOUDY    28  27  96 N20G30    29.67R WCI  15
HILL CITY KS   CLOUDY    34  32  92 N18G24    29.65R
IMPERIAL NEB   LGT SNOW  26  23  88 N17       29.73R FOG     WCI  13
MCCOOK NEB     LGT SNOW  30  29  96 N13       29.71R FOG     WCI  20
AKRON CO       LGT SNOW  20  17  88 N16       29.73R FOG     WCI   6
BURLINGTON CO  CLOUDY    28  24  85 N21       29.67R WCI  15
LIMON CO       FRZ RAIN  22  21  96 N21       29.69R FOG     WCI   6
$$

...UNOFFICIAL OBSERVATIONS...

CITY           SKY/WX    TMP DP  RH WIND       PRES   REMARKS
LENORA KS        N/A     33  32  96 N12         N/A
NORTON KS      CLOUDY    34  28  80 NW15      29.67
SHARON SPRINGS   N/A     31  28  88 N22         N/A  WCI  18
TRENTON NEB      N/A     27  32 100 CALM        N/A
KIT CARSON CO    N/A     28  22  78 MISG        N/A
YUMA CO        CLOUDY    23  21  93 N6        29.73R
$$




USA.gov is the U.S. government's official web portal to all federal, state and local government web resources and services.